Date,TemperatureHighF,TemperatureAvgF,TemperatureLowF,DewpointHighF,DewpointAvgF,DewpointLowF,HumidityHigh,HumidityAvg,HumidityLow,PressureMaxIn,PressureMinIn,WindSpeedMaxMPH,WindSpeedAvgMPH,GustSpeedMaxMPH,PrecipitationSumIn
2013-12-1,26.0,23.8,23.0,22.0,21.4,21.0,91,90,87,0.00,40.00,0,0,0,0.00
2013-12-2,43.0,35.0,28.0,33.0,29.8,26.0,92,81,65,0.00,40.00,2,0,6,0.00
2013-12-3,43.0,38.7,28.0,34.0,32.3,26.0,92,78,66,0.00,40.00,2,0,4,0.00
2013-12-4,56.0,44.4,36.0,46.0,37.7,33.0,90,78,64,0.00,40.00,1,0,4,0.00
2013-12-5,57.0,46.6,38.0,51.0,39.7,31.0,79,76,71,0.00,40.00,0,0,9,1.10
2013-12-6,33.0,29.6,27.0,26.0,24.3,22.0,90,81,65,0.00,40.00,1,0,6,2.20
2013-12-7,28.0,25.2,24.0,25.0,17.4,14.0,87,72,63,0.00,40.00,2,0,9,1.65
2013-12-8,28.0,28.0,28.0,16.0,16.0,16.0,61,61,61,0.00,40.00,0,0,3,0.00
2013-12-9,34.0,31.4,30.0,24.0,22.2,21.0,70,67,65,0.00,40.00,4,1,17,0.00
2013-12-10,29.0,25.9,23.0,16.0,10.6,5.0,73,53,37,0.00,40.00,7,2,19,1.69
2013-12-11,25.0,21.7,19.0,21.0,15.4,11.0,90,76,65,0.00,40.00,4,1,12,4.99
2013-12-12,20.0,17.5,14.0,14.0,5.1,0.0,85,59,42,0.00,40.00,4,1,15,0.00
2013-12-13,30.0,24.6,18.0,20.0,14.2,4.0,83,64,53,0.00,40.00,2,0,9,0.00
2013-12-14,32.0,28.1,23.0,30.0,23.5,-99.9,93,88,83,0.00,40.00,2,0,6,11.67
2013-12-16,14.0,13.5,13.0,11.0,10.5,10.0,89,88,88,0.00,40.00,0,0,0,1.69
2013-12-17,29.0,24.8,15.0,21.0,19.0,13.0,90,79,68,0.00,40.00,2,0,11,1.69
2013-12-18,31.0,27.0,24.0,22.0,19.0,17.0,79,71,64,0.00,40.00,2,1,9,0.00
2013-12-19,47.0,39.6,28.0,31.0,28.8,18.0,82,65,51,0.00,40.00,3,0,9,0.00
2013-12-20,44.0,40.7,37.0,42.0,37.3,32.0,92,87,72,0.00,40.00,0,0,4,6.64
2013-12-22,39.0,39.0,39.0,36.0,36.0,36.0,89,89,89,0.00,40.00,0,0,0,0.00
2013-12-23,39.0,39.0,39.0,36.0,36.0,36.0,89,89,89,0.00,40.00,0,0,0,0.00
2013-12-24,22.0,19.3,14.0,20.0,15.1,9.0,91,82,68,0.00,40.00,4,-56,12,7.32
2013-12-25,26.0,20.7,8.0,17.0,12.4,5.0,89,70,57,0.00,40.00,3,0,9,0.00
2013-12-26,31.0,27.8,21.0,29.0,21.8,17.0,94,78,60,0.00,40.00,5,0,13,3.89
2013-12-27,41.0,32.6,24.0,29.0,24.9,18.0,85,73,59,0.00,40.00,1,0,7,0.00
2013-12-28,51.0,41.0,34.0,33.0,27.4,-99.9,78,62,47,0.00,40.00,2,0,12,0.00
2013-12-29,42.0,38.8,28.0,38.0,30.5,26.0,91,73,55,0.00,40.00,1,0,9,1.69
2013-12-30,28.0,19.9,16.0,26.0,15.7,11.0,91,83,69,0.00,40.00,6,1,12,5.58